,,Stat6,,Stat2,,Stat8,,Stat9,,Stat10,,Wind1,,Wind1,
time,status,PA1M_AVG,status,PR1M_SUM,status,RH1M_AVG,status,SR1M_AVG,status,TA1M_AVG,status,W1dAve1m,status,W1sAve1m,
2007-04-14, 00:00:00,VALID,917.713,VALID,0,VALID,100,VALID,0.0339617,VALID,18.9614,VALID,143,VALID,1.56303,
2007-04-14, 00:01:00,VALID,917.692,VALID,0,VALID,100,VALID,0,VALID,18.9684,VALID,142,VALID,1.65346,
2007-04-14, 00:02:00,VALID,917.675,VALID,0,VALID,100,VALID,0,VALID,18.9716,VALID,142,VALID,1.60338,
2007-04-14, 00:03:00,VALID,917.642,VALID,0,VALID,100,VALID,0,VALID,18.9614,VALID,142,VALID,1.94386,
2007-04-14, 00:04:00,VALID,917.62,VALID,0,VALID,100,VALID,-0.0169808,VALID,18.9649,VALID,155,VALID,1.51687,
2007-04-14, 00:05:00,VALID,917.606,VALID,0,VALID,100,VALID,0.0169808,VALID,18.9649,VALID,153,VALID,1.38491,
2007-04-14, 00:06:00,VALID,917.605,VALID,0,VALID,100,VALID,0.0509425,VALID,18.9644,VALID,152,VALID,1.64603,
2007-04-14, 00:07:00,VALID,917.589,VALID,0,VALID,100,VALID,0.0679233,VALID,18.9644,VALID,148,VALID,1.63681,
2007-04-14, 00:08:00,VALID,917.598,VALID,0,VALID,100,VALID,0,VALID,18.9744,VALID,142,VALID,1.27708,
2007-04-14, 00:09:00,VALID,917.598,VALID,0,VALID,100,VALID,0,VALID,18.9744,VALID,143,VALID,2.05778,
2007-04-14, 00:10:00,VALID,917.596,VALID,0,VALID,100,VALID,0.0169808,VALID,18.9677,VALID,141,VALID,1.59462,
2007-04-14, 00:11:00,VALID,917.596,VALID,0,VALID,100,VALID,0.0679233,VALID,18.9709,VALID,148,VALID,1.61928,
2007-04-14, 00:12:00,VALID,917.583,VALID,0,VALID,100,VALID,0.0169808,VALID,18.9679,VALID,148,VALID,1.67691,
2007-04-14, 00:13:00,VALID,917.576,VALID,0,VALID,100,VALID,0.0339617,VALID,18.9742,VALID,144,VALID,1.38148,
2007-04-14, 00:14:00,VALID,917.551,VALID,0,VALID,100,VALID,0.0509425,VALID,18.9709,VALID,148,VALID,1.86293,
2007-04-14, 00:15:00,VALID,917.538,VALID,0,VALID,100,VALID,0,VALID,18.9811,VALID,142,VALID,1.71644,
2007-04-14, 00:16:00,VALID,917.517,VALID,0,VALID,100,VALID,0.0339617,VALID,18.9841,VALID,151,VALID,1.77379,
2007-04-14, 00:17:00,VALID,917.507,VALID,0,VALID,100,VALID,0.0339617,VALID,18.9869,VALID,150,VALID,2.00226,
2007-04-14, 00:18:00,VALID,917.488,VALID,0,VALID,100,VALID,0.0169808,VALID,18.9969,VALID,157,VALID,1.92743,
2007-04-14, 00:19:00,VALID,917.482,VALID,0,VALID,100,VALID,0,VALID,19.0006,VALID,150,VALID,1.1657,
2007-04-14, 00:20:00,VALID,917.466,VALID,0,VALID,100,VALID,0,VALID,18.9971,VALID,147,VALID,1.65945,
2007-04-14, 00:21:00,VALID,917.461,VALID,0,VALID,100,VALID,0.0509425,VALID,19.0068,VALID,152,VALID,1.66744,
2007-04-14, 00:22:00,VALID,917.426,VALID,0,VALID,100,VALID,0.0509425,VALID,19.0004,VALID,152,VALID,2.19565,
2007-04-14, 00:23:00,VALID,917.402,VALID,0,VALID,100,VALID,0.0339617,VALID,19.0168,VALID,159,VALID,2.28516,
2007-04-14, 00:24:00,VALID,917.385,VALID,0,VALID,100,VALID,0.0169808,VALID,19.0196,VALID,154,VALID,1.69477,
2007-04-14, 00:25:00,VALID,917.375,VALID,0,VALID,100,VALID,0.0169808,VALID,19.0196,VALID,141,VALID,1.34466,
2007-04-14, 00:26:00,VALID,917.346,VALID,0,VALID,100,VALID,0.0169808,VALID,19.0231,VALID,149,VALID,1.519,
2007-04-14, 00:27:00,VALID,917.318,VALID,0,VALID,100,VALID,0.0169808,VALID,19.0198,VALID,152,VALID,1.4084,
2007-04-14, 00:28:00,VALID,917.294,VALID,0,VALID,100,VALID,-0.0169808,VALID,19.0298,VALID,137,VALID,1.62731,
2007-04-14, 00:29:00,VALID,917.293,VALID,0,VALID,100,VALID,-0.0509425,VALID,19.0213,VALID,138,VALID,1.36585,
2007-04-14, 00:30:00,VALID,917.262,VALID,0,VALID,100,VALID,-0.0849042,VALID,19.0208,VALID,156,VALID,1.49432,
2007-04-14, 00:31:00,VALID,917.252,VALID,0,VALID,100,VALID,-0.0679233,VALID,19.0178,VALID,137,VALID,1.36597,
2007-04-14, 00:32:00,VALID,917.229,VALID,0,VALID,100,VALID,-0.0509425,VALID,19.0143,VALID,138,VALID,1.54467,
2007-04-14, 00:33:00,VALID,917.222,VALID,0,VALID,100,VALID,-0.0849042,VALID,19.0148,VALID,135,VALID,1.08098,
2007-04-14, 00:34:00,VALID,917.188,VALID,0,VALID,100,VALID,-0.0849042,VALID,19.008,VALID,130,VALID,1.41146,
2007-04-14, 00:35:00,VALID,917.175,VALID,0,VALID,100,VALID,-0.101885,VALID,19.018,VALID,147,VALID,1.23438,
2007-04-14, 00:36:00,VALID,917.168,VALID,0,VALID,100,VALID,-0.118866,VALID,19.0053,VALID,147,VALID,0.798549,
2007-04-14, 00:37:00,VALID,917.152,VALID,0,VALID,100,VALID,-0.101885,VALID,18.9958,VALID,145,VALID,1.31305,
2007-04-14, 00:38:00,VALID,917.138,VALID,0,VALID,100,VALID,-0.118866,VALID,19.0025,VALID,149,VALID,1.48266,
2007-04-14, 00:39:00,VALID,917.131,VALID,0,VALID,100,VALID,-0.101885,VALID,18.9791,VALID,149,VALID,1.46294,
2007-04-14, 00:40:00,VALID,917.118,VALID,0,VALID,100,VALID,-0.0849042,VALID,18.9791,VALID,153,VALID,1.9166,
2007-04-14, 00:41:00,VALID,917.108,VALID,0,VALID,100,VALID,-0.101885,VALID,19.002,VALID,149,VALID,1.59248,
2007-04-14, 00:42:00,VALID,917.089,VALID,0,VALID,100,VALID,-0.0679233,VALID,19.0083,VALID,150,VALID,1.9342,
2007-04-14, 00:43:00,VALID,917.064,VALID,0,VALID,100,VALID,-0.0509425,VALID,19.0143,VALID,142,VALID,1.78979,
2007-04-14, 00:44:00,VALID,917.036,VALID,0,VALID,100,VALID,0.0339617,VALID,19.0128,VALID,148,VALID,1.59258,
2007-04-14, 00:45:00,VALID,917.014,VALID,0,VALID,100,VALID,0.0169808,VALID,19.0196,VALID,148,VALID,1.61592,
2007-04-14, 00:46:00,VALID,916.995,VALID,0,VALID,100,VALID,0.0169808,VALID,19.0198,VALID,154,VALID,1.68025,
2007-04-14, 00:47:00,VALID,916.988,VALID,0,VALID,100,VALID,0,VALID,19.0168,VALID,143,VALID,2.10328,
2007-04-14, 00:48:00,VALID,916.989,VALID,0,VALID,100,VALID,0.0169808,VALID,19.0161,VALID,138,VALID,1.75174,
2007-04-14, 00:49:00,VALID,916.977,VALID,0,VALID,100,VALID,0,VALID,19.0231,VALID,141,VALID,1.52697,
2007-04-14, 00:50:00,VALID,916.975,VALID,0,VALID,100,VALID,0,VALID,19.0328,VALID,147,VALID,1.9246,
2007-04-14, 00:51:00,VALID,916.976,VALID,0,VALID,100,VALID,0,VALID,19.0557,VALID,134,VALID,1.76358,
2007-04-14, 00:52:00,VALID,916.969,VALID,0,VALID,100,VALID,0,VALID,19.0655,VALID,138,VALID,1.80771,
2007-04-14, 00:53:00,VALID,916.967,VALID,0,VALID,100,VALID,0,VALID,19.0715,VALID,129,VALID,1.79342,
2007-04-14, 00:54:00,VALID,916.943,VALID,0,VALID,100,VALID,0.0339617,VALID,19.078,VALID,134,VALID,1.84208,
2007-04-14, 00:55:00,VALID,916.927,VALID,0,VALID,100,VALID,0.0339617,VALID,19.0977,VALID,136,VALID,2.21748,
2007-04-14, 00:56:00,VALID,916.923,VALID,0,VALID,99.939,VALID,0.0509425,VALID,19.1141,VALID,132,VALID,2.54728,
2007-04-14, 00:57:00,VALID,916.905,VALID,0,VALID,99.7141,VALID,0.0169808,VALID,19.1493,VALID,124,VALID,2.2468,
2007-04-14, 00:58:00,VALID,916.888,VALID,0,VALID,99.3975,VALID,0.0339617,VALID,19.1952,VALID,136,VALID,2.01143,
2007-04-14, 00:59:00,VALID,916.859,VALID,0,VALID,99.1724,VALID,-0.0509425,VALID,19.2281,VALID,117,VALID,2.2721,
2007-04-14, 01:00:00,VALID,916.846,VALID,0,VALID,99.0109,VALID,-0.101885,VALID,19.2446,VALID,128,VALID,2.19695,
2007-04-14, 01:01:00,VALID,916.826,VALID,0,VALID,98.8075,VALID,-0.0849042,VALID,19.2708,VALID,145,VALID,1.83408,
2007-04-14, 01:02:00,VALID,916.806,VALID,0,VALID,98.5595,VALID,-0.0679233,VALID,19.2868,VALID,134,VALID,1.77195,
2007-04-14, 01:03:00,VALID,916.788,VALID,0,VALID,98.3688,VALID,-0.0509425,VALID,19.3095,VALID,137,VALID,2.43395,
2007-04-14, 01:04:00,VALID,916.758,VALID,0,VALID,98.2238,VALID,-0.0339617,VALID,19.3257,VALID,143,VALID,2.11602,
2007-04-14, 01:05:00,VALID,916.745,VALID,0,VALID,98.2124,VALID,-0.0679233,VALID,19.329,VALID,148,VALID,1.73837,
2007-04-14, 01:06:00,VALID,916.747,VALID,0,VALID,98.2861,VALID,-0.0509425,VALID,19.3162,VALID,162,VALID,1.59357,
2007-04-14, 01:07:00,VALID,916.734,VALID,0,VALID,98.4006,VALID,-0.0849042,VALID,19.2868,VALID,160,VALID,1.66763,
2007-04-14, 01:08:00,VALID,916.743,VALID,0,VALID,98.4731,VALID,-0.0849042,VALID,19.2775,VALID,160,VALID,2.26544,
2007-04-14, 01:09:00,VALID,916.739,VALID,0,VALID,98.4502,VALID,-0.0849042,VALID,19.2641,VALID,153,VALID,3.06955,
2007-04-14, 01:10:00,VALID,916.745,VALID,0,VALID,98.2696,VALID,-0.101885,VALID,19.3102,VALID,140,VALID,2.44112,
2007-04-14, 01:11:00,VALID,916.747,VALID,0,VALID,98.1552,VALID,-0.101885,VALID,19.3165,VALID,140,VALID,2.39099,
2007-04-14, 01:12:00,VALID,916.744,VALID,0,VALID,98.0305,VALID,-0.0679233,VALID,19.326,VALID,145,VALID,2.96208,
2007-04-14, 01:13:00,VALID,916.735,VALID,0,VALID,97.7775,VALID,-0.0679233,VALID,19.3651,VALID,133,VALID,2.70071,
2007-04-14, 01:14:00,VALID,916.726,VALID,0,VALID,97.3477,VALID,-0.0849042,VALID,19.4165,VALID,145,VALID,2.99288,
2007-04-14, 01:15:00,VALID,916.714,VALID,0,VALID,96.9649,VALID,-0.0509425,VALID,19.4617,VALID,143,VALID,2.64695,
2007-04-14, 01:16:00,VALID,916.682,VALID,0,VALID,96.6114,VALID,-0.0509425,VALID,19.5071,VALID,142,VALID,3.18555,
2007-04-14, 01:17:00,VALID,916.66,VALID,0,VALID,96.5046,VALID,-0.0509425,VALID,19.5431,VALID,127,VALID,2.93514,
2007-04-14, 01:18:00,VALID,916.629,VALID,0,VALID,96.3101,VALID,-0.0339617,VALID,19.5498,VALID,142,VALID,2.7698,
2007-04-14, 01:19:00,VALID,916.627,VALID,0,VALID,96.2427,VALID,-0.0679233,VALID,19.5793,VALID,136,VALID,2.63318,
2007-04-14, 01:20:00,VALID,916.615,VALID,0,VALID,96.1931,VALID,-0.0849042,VALID,19.5685,VALID,140,VALID,3.41615,
2007-04-14, 01:21:00,VALID,916.614,VALID,0,VALID,96.1702,VALID,-0.0339617,VALID,19.588,VALID,146,VALID,2.45703,
2007-04-14, 01:22:00,VALID,916.6,VALID,0,VALID,96.188,VALID,-0.0509425,VALID,19.5658,VALID,141,VALID,3.08556,
2007-04-14, 01:23:00,VALID,916.608,VALID,0,VALID,96.1448,VALID,-0.0339617,VALID,19.559,VALID,148,VALID,2.78184,
2007-04-14, 01:24:00,VALID,916.601,VALID,0,VALID,96.0481,VALID,-0.0509425,VALID,19.5753,VALID,134,VALID,2.87388,
2007-04-14, 01:25:00,VALID,916.588,VALID,0,VALID,95.9235,VALID,-0.0509425,VALID,19.575,VALID,134,VALID,3.38826,
2007-04-14, 01:26:00,VALID,916.582,VALID,0,VALID,95.1999,VALID,-0.0339617,VALID,19.6367,VALID,148,VALID,3.96838,
2007-04-14, 01:27:00,VALID,916.58,VALID,0,VALID,95.0295,VALID,-0.0169808,VALID,19.705,VALID,138,VALID,2.64608,
2007-04-14, 01:28:00,VALID,916.581,VALID,0,VALID,95.1745,VALID,-0.0339617,VALID,19.6888,VALID,138,VALID,2.7381,
2007-04-14, 01:29:00,VALID,916.567,VALID,0,VALID,95.1326,VALID,-0.0509425,VALID,19.6856,VALID,151,VALID,2.59947,
2007-04-14, 01:30:00,VALID,916.557,VALID,0,VALID,94.9253,VALID,-0.0339617,VALID,19.7021,VALID,139,VALID,2.80041,
2007-04-14, 01:31:00,VALID,916.551,VALID,0,VALID,94.8477,VALID,0,VALID,19.718,VALID,143,VALID,2.367,
2007-04-14, 01:32:00,VALID,916.527,VALID,0,VALID,94.8337,VALID,-0.101885,VALID,19.7243,VALID,137,VALID,2.96715,
2007-04-14, 01:33:00,VALID,916.5,VALID,0,VALID,94.8172,VALID,-0.0679233,VALID,19.7347,VALID,148,VALID,3.43917,
2007-04-14, 01:34:00,VALID,916.489,VALID,0,VALID,94.69,VALID,-0.0509425,VALID,19.7505,VALID,140,VALID,3.07533,
2007-04-14, 01:35:00,VALID,916.472,VALID,0,VALID,94.54,VALID,-0.0169808,VALID,19.757,VALID,142,VALID,3.17578,
2007-04-14, 01:36:00,VALID,916.466,VALID,0,VALID,94.6875,VALID,-0.0849042,VALID,19.7772,VALID,131,VALID,3.14732,
2007-04-14, 01:37:00,VALID,916.421,VALID,0,VALID,95.0105,VALID,-0.0849042,VALID,19.7315,VALID,132,VALID,2.79776,
2007-04-14, 01:38:00,VALID,916.42,VALID,0,VALID,95.2788,VALID,-0.0679233,VALID,19.6923,VALID,140,VALID,2.44131,
2007-04-14, 01:39:00,VALID,916.412,VALID,0,VALID,95.5789,VALID,-0.0679233,VALID,19.6536,VALID,128,VALID,2.53472,
2007-04-14, 01:40:00,VALID,916.403,VALID,0,VALID,95.6145,VALID,-0.0849042,VALID,19.6279,VALID,134,VALID,3.00382,
2007-04-14, 01:41:00,VALID,916.4,VALID,0,VALID,95.5,VALID,-0.0509425,VALID,19.6372,VALID,145,VALID,3.14419,
2007-04-14, 01:42:00,VALID,916.401,VALID,0,VALID,95.2432,VALID,-0.0339617,VALID,19.6626,VALID,138,VALID,3.49891,
2007-04-14, 01:43:00,VALID,916.384,VALID,0,VALID,94.9901,VALID,-0.0849042,VALID,19.6988,VALID,128,VALID,3.29402,
2007-04-14, 01:44:00,VALID,916.386,VALID,0,VALID,94.5845,VALID,-0.0169808,VALID,19.7507,VALID,140,VALID,2.95028,
2007-04-14, 01:45:00,VALID,916.372,VALID,0,VALID,94.3327,VALID,-0.101885,VALID,19.7897,VALID,137,VALID,3.20503,
2007-04-14, 01:46:00,VALID,916.369,VALID,0,VALID,94.1038,VALID,-0.0339617,VALID,19.8159,VALID,145,VALID,3.51083,
2007-04-14, 01:47:00,VALID,916.368,VALID,0,VALID,93.9309,VALID,0,VALID,19.8311,VALID,136,VALID,3.67615,
2007-04-14, 01:48:00,VALID,916.371,VALID,0,VALID,93.6677,VALID,-0.0509425,VALID,19.8545,VALID,132,VALID,3.88377,
2007-04-14, 01:49:00,VALID,916.342,VALID,0,VALID,93.0052,VALID,-0.0509425,VALID,19.9424,VALID,137,VALID,3.53051,
2007-04-14, 01:50:00,VALID,916.328,VALID,0,VALID,92.583,VALID,-0.0339617,VALID,19.9873,VALID,137,VALID,3.84175,
2007-04-14, 01:51:00,VALID,916.34,VALID,0,VALID,92.2498,VALID,-0.0339617,VALID,20.036,VALID,134,VALID,3.40589,
2007-04-14, 01:52:00,VALID,916.338,VALID,0,VALID,92.3159,VALID,-0.0509425,VALID,20.0655,VALID,124,VALID,2.87405,
2007-04-14, 01:53:00,VALID,916.341,VALID,0,VALID,92.8042,VALID,-0.0339617,VALID,20.0168,VALID,125,VALID,2.98492,
2007-04-14, 01:54:00,VALID,916.348,VALID,0,VALID,92.9975,VALID,-0.0849042,VALID,19.9714,VALID,124,VALID,2.76272,
2007-04-14, 01:55:00,VALID,916.341,VALID,0,VALID,93.0586,VALID,-0.0679233,VALID,19.9549,VALID,116,VALID,2.90011,
2007-04-14, 01:56:00,VALID,916.369,VALID,0,VALID,92.8729,VALID,-0.0849042,VALID,19.9781,VALID,142,VALID,3.03216,
2007-04-14, 01:57:00,VALID,916.365,VALID,0,VALID,93.0344,VALID,-0.0339617,VALID,19.9813,VALID,124,VALID,2.25632,
2007-04-14, 01:58:00,VALID,916.371,VALID,0,VALID,93.3536,VALID,-0.0339617,VALID,19.9454,VALID,136,VALID,2.4335,
2007-04-14, 01:59:00,VALID,916.371,VALID,0,VALID,93.6206,VALID,0.0339617,VALID,19.8892,VALID,124,VALID,2.75526,
2007-04-14, 02:00:00,VALID,916.375,VALID,0,VALID,93.7401,VALID,0.0169808,VALID,19.8698,VALID,131,VALID,2.7301,
2007-04-14, 02:01:00,VALID,916.375,VALID,0,VALID,93.9105,VALID,0.0169808,VALID,19.8535,VALID,140,VALID,2.57984,
2007-04-14, 02:02:00,VALID,916.388,VALID,0,VALID,94.1178,VALID,0,VALID,19.8146,VALID,131,VALID,2.05178,
2007-04-14, 02:03:00,VALID,916.407,VALID,0,VALID,94.4433,VALID,0.0169808,VALID,19.7916,VALID,138,VALID,1.484,
2007-04-14, 02:04:00,VALID,916.387,VALID,0,VALID,94.8808,VALID,0.0169808,VALID,19.7367,VALID,129,VALID,1.65004,
2007-04-14, 02:05:00,VALID,916.415,VALID,0,VALID,95.1999,VALID,0.0169808,VALID,19.6753,VALID,139,VALID,1.63385,
2007-04-14, 02:06:00,VALID,916.414,VALID,0,VALID,95.336,VALID,0,VALID,19.6394,VALID,148,VALID,2.0972,
2007-04-14, 02:07:00,VALID,916.442,VALID,0,VALID,95.5471,VALID,0.0169808,VALID,19.6229,VALID,169,VALID,1.92169,
2007-04-14, 02:08:00,VALID,916.443,VALID,0,VALID,95.8243,VALID,-0.0169808,VALID,19.5843,VALID,161,VALID,1.98917,
2007-04-14, 02:09:00,VALID,916.435,VALID,0,VALID,95.9006,VALID,0.0169808,VALID,19.5648,VALID,147,VALID,1.37691,
2007-04-14, 02:10:00,VALID,916.461,VALID,0,VALID,95.9972,VALID,0.0169808,VALID,19.5583,VALID,168,VALID,1.18182,
2007-04-14, 02:11:00,VALID,916.475,VALID,0,VALID,96.1486,VALID,0.0169808,VALID,19.5391,VALID,147,VALID,1.10556,
2007-04-14, 02:12:00,VALID,916.479,VALID,0,VALID,96.2846,VALID,0,VALID,19.5062,VALID,150,VALID,1.22225,
2007-04-14, 02:13:00,VALID,916.499,VALID,0,VALID,96.3139,VALID,-0.0169808,VALID,19.4939,VALID,130,VALID,0.981831,
2007-04-14, 02:14:00,VALID,916.497,VALID,0,VALID,96.0557,VALID,-0.0849042,VALID,19.5049,VALID,121,VALID,1.46484,
2007-04-14, 02:15:00,VALID,916.494,VALID,0,VALID,95.9222,VALID,-0.0849042,VALID,19.5273,VALID,130,VALID,0.789063,
2007-04-14, 02:16:00,VALID,916.509,VALID,0,VALID,95.7989,VALID,-0.0849042,VALID,19.5403,VALID,116,VALID,1.2896,
2007-04-14, 02:17:00,VALID,916.524,VALID,0,VALID,95.6221,VALID,-0.101885,VALID,19.5763,VALID,98,VALID,0.887649,
2007-04-14, 02:18:00,VALID,916.538,VALID,0,VALID,95.3716,VALID,-0.118866,VALID,19.602,VALID,111,VALID,1.05134,
2007-04-14, 02:19:00,VALID,916.538,VALID,0,VALID,95.158,VALID,-0.101885,VALID,19.6509,VALID,103,VALID,0.640997,
2007-04-14, 02:20:00,VALID,916.542,VALID,0,VALID,95.0753,VALID,-0.101885,VALID,19.6636,VALID,91,VALID,0.509766,
2007-04-14, 02:21:00,VALID,916.521,VALID,0,VALID,94.8795,VALID,-0.101885,VALID,19.6771,VALID,141,VALID,1.21822,
2007-04-14, 02:22:00,VALID,916.501,VALID,0,VALID,94.4624,VALID,-0.118866,VALID,19.7285,VALID,139,VALID,1.31938,
2007-04-14, 02:23:00,VALID,916.5,VALID,0,VALID,94.2488,VALID,-0.118866,VALID,19.8064,VALID,92,VALID,1.45472,
2007-04-14, 02:24:00,VALID,916.481,VALID,0,VALID,94.3543,VALID,-0.101885,VALID,19.8129,VALID,110,VALID,1.53218,
2007-04-14, 02:25:00,VALID,916.478,VALID,0,VALID,94.7142,VALID,-0.118866,VALID,19.7869,VALID,121,VALID,1.25488,
2007-04-14, 02:26:00,VALID,916.473,VALID,0,VALID,95.1122,VALID,-0.101885,VALID,19.7285,VALID,70,VALID,1.38357,
2007-04-14, 02:27:00,VALID,916.442,VALID,0,VALID,95.1364,VALID,-0.0849042,VALID,19.7158,VALID,114,VALID,1.45476,
2007-04-14, 02:28:00,VALID,916.44,VALID,0,VALID,95.1631,VALID,-0.0849042,VALID,19.705,VALID,128,VALID,1.18803,
2007-04-14, 02:29:00,VALID,916.444,VALID,0,VALID,95.3233,VALID,0.0509425,VALID,19.7006,VALID,87,VALID,0.99295,
2007-04-14, 02:30:00,VALID,916.434,VALID,0,VALID,95.453,VALID,0,VALID,19.6848,VALID,87,VALID,1.93118,
2007-04-14, 02:31:00,VALID,916.428,VALID,0,VALID,95.701,VALID,0,VALID,19.6619,VALID,123,VALID,1.87147,
2007-04-14, 02:32:00,VALID,916.434,VALID,0,VALID,96.085,VALID,0.0169808,VALID,19.6202,VALID,141,VALID,1.6702,
2007-04-14, 02:33:00,VALID,916.438,VALID,0,VALID,96.1956,VALID,0.0169808,VALID,19.5905,VALID,109,VALID,1.76152,
2007-04-14, 02:34:00,VALID,916.432,VALID,0,VALID,95.8637,VALID,0,VALID,19.6199,VALID,130,VALID,2.6516,
2007-04-14, 02:35:00,VALID,916.439,VALID,0,VALID,95.4454,VALID,-0.0169808,VALID,19.6978,VALID,126,VALID,2.6032,
2007-04-14, 02:36:00,VALID,916.469,VALID,0,VALID,95.3093,VALID,0.0339617,VALID,19.7362,VALID,120,VALID,2.45349,
2007-04-14, 02:37:00,VALID,916.462,VALID,0,VALID,94.7765,VALID,0,VALID,19.7951,VALID,139,VALID,2.83594,
2007-04-14, 02:38:00,VALID,916.443,VALID,0,VALID,94.2679,VALID,0.0169808,VALID,19.8763,VALID,149,VALID,1.57866,
2007-04-14, 02:39:00,VALID,916.462,VALID,0,VALID,94.3314,VALID,0.0339617,VALID,19.9049,VALID,120,VALID,1.62282,
2007-04-14, 02:40:00,VALID,916.458,VALID,0,VALID,94.6455,VALID,0.0169808,VALID,19.8698,VALID,141,VALID,1.48008,
2007-04-14, 02:41:00,VALID,916.459,VALID,0,VALID,94.8426,VALID,0,VALID,19.8276,VALID,136,VALID,2.66574,
2007-04-14, 02:42:00,VALID,916.458,VALID,0,VALID,94.7422,VALID,0,VALID,19.8306,VALID,140,VALID,2.95219,
2007-04-14, 02:43:00,VALID,916.454,VALID,0,VALID,94.2043,VALID,0.0169808,VALID,19.899,VALID,152,VALID,3.21285,
2007-04-14, 02:44:00,VALID,916.462,VALID,0,VALID,93.4871,VALID,0,VALID,20.0125,VALID,138,VALID,2.97856,
2007-04-14, 02:45:00,VALID,916.466,VALID,0,VALID,93.2951,VALID,0,VALID,20.0934,VALID,137,VALID,2.37742,
2007-04-14, 02:46:00,VALID,916.464,VALID,0,VALID,93.1641,VALID,0.0169808,VALID,20.0999,VALID,145,VALID,2.85052,
2007-04-14, 02:47:00,VALID,916.465,VALID,0,VALID,93.0687,VALID,-0.0169808,VALID,20.1296,VALID,147,VALID,2.21979,
2007-04-14, 02:48:00,VALID,916.455,VALID,0,VALID,93.1349,VALID,0,VALID,20.1228,VALID,141,VALID,3.04948,
2007-04-14, 02:49:00,VALID,916.429,VALID,0,VALID,92.527,VALID,0.0169808,VALID,20.1748,VALID,143,VALID,3.53946,
2007-04-14, 02:50:00,VALID,916.434,VALID,0,VALID,91.2707,VALID,0,VALID,20.34,VALID,110,VALID,3.36585,
2007-04-14, 02:51:00,VALID,916.43,VALID,0,VALID,90.256,VALID,0,VALID,20.5152,VALID,138,VALID,2.21467,
2007-04-14, 02:52:00,VALID,916.421,VALID,0,VALID,90.2445,VALID,0.0339617,VALID,20.5771,VALID,133,VALID,3.22929,
2007-04-14, 02:53:00,VALID,916.441,VALID,0,VALID,90.041,VALID,0,VALID,20.5739,VALID,125,VALID,3.1319,
2007-04-14, 02:54:00,VALID,916.437,VALID,0,VALID,89.7689,VALID,0.0169808,VALID,20.6353,VALID,124,VALID,2.61477,
2007-04-14, 02:55:00,VALID,916.438,VALID,0,VALID,89.8579,VALID,0.0339617,VALID,20.6315,VALID,130,VALID,2.34821,
2007-04-14, 02:56:00,VALID,916.41,VALID,0,VALID,89.9037,VALID,0.0169808,VALID,20.6256,VALID,143,VALID,3.13021,
2007-04-14, 02:57:00,VALID,916.414,VALID,0,VALID,89.6659,VALID,0.0169808,VALID,20.6353,VALID,139,VALID,2.99531,
2007-04-14, 02:58:00,VALID,916.425,VALID,0,VALID,89.7206,VALID,0,VALID,20.6777,VALID,125,VALID,2.06854,
2007-04-14, 02:59:00,VALID,916.43,VALID,0,VALID,90.1224,VALID,-0.0169808,VALID,20.6356,VALID,161,VALID,1.5556,
2007-04-14, 03:00:00,VALID,916.457,VALID,0,VALID,90.481,VALID,0,VALID,20.5739,VALID,103,VALID,1.44695,
2007-04-14, 03:01:00,VALID,916.457,VALID,0,VALID,91.0329,VALID,-0.0169808,VALID,20.4928,VALID,116,VALID,2.01217,
2007-04-14, 03:02:00,VALID,916.458,VALID,0,VALID,91.6751,VALID,0,VALID,20.4051,VALID,128,VALID,1.76791,
2007-04-14, 03:03:00,VALID,916.461,VALID,0,VALID,91.9434,VALID,-0.0169808,VALID,20.3208,VALID,127,VALID,2.55246,
2007-04-14, 03:04:00,VALID,916.445,VALID,0,VALID,91.4818,VALID,-0.0339617,VALID,20.3635,VALID,141,VALID,2.21484,
2007-04-14, 03:05:00,VALID,916.428,VALID,0,VALID,91.4385,VALID,-0.0339617,VALID,20.4054,VALID,164,VALID,2.0883,
2007-04-14, 03:06:00,VALID,916.433,VALID,0,VALID,91.6636,VALID,-0.0339617,VALID,20.3957,VALID,156,VALID,2.13209,
2007-04-14, 03:07:00,VALID,916.439,VALID,0,VALID,91.9612,VALID,-0.0339617,VALID,20.3532,VALID,143,VALID,2.29799,
2007-04-14, 03:08:00,VALID,916.447,VALID,0,VALID,92.5016,VALID,-0.0169808,VALID,20.3116,VALID,158,VALID,2.41146,
2007-04-14, 03:09:00,VALID,916.419,VALID,0,VALID,93.2989,VALID,-0.0169808,VALID,20.2302,VALID,168,VALID,2.28018,
2007-04-14, 03:10:00,VALID,916.419,VALID,0,VALID,94.0797,VALID,0,VALID,20.1228,VALID,162,VALID,2.08166,
2007-04-14, 03:11:00,VALID,916.414,VALID,0,VALID,94.7078,VALID,0,VALID,20.0125,VALID,169,VALID,2.14714,
2007-04-14, 03:12:00,VALID,916.43,VALID,0,VALID,95.2991,VALID,0,VALID,19.9314,VALID,156,VALID,1.89426,
2007-04-14, 03:13:01,VALID,916.423,VALID,0,VALID,95.8269,VALID,0.0169808,VALID,19.8371,VALID,164,VALID,1.86919,
2007-04-14, 03:14:00,VALID,916.42,VALID,0,VALID,95.79,VALID,-0.0169808,VALID,19.7954,VALID,155,VALID,2.31996,
2007-04-14, 03:15:00,VALID,916.452,VALID,0,VALID,95.6857,VALID,0,VALID,19.8341,VALID,161,VALID,1.83934,
2007-04-14, 03:16:00,VALID,916.438,VALID,0,VALID,95.5814,VALID,0.0339617,VALID,19.8438,VALID,164,VALID,2.54847,
2007-04-14, 03:17:00,VALID,916.448,VALID,0,VALID,95.893,VALID,0.0509425,VALID,19.8341,VALID,163,VALID,1.74516,
2007-04-14, 03:18:00,VALID,916.437,VALID,0,VALID,96.2045,VALID,-0.0169808,VALID,19.7757,VALID,179,VALID,2.13778,
2007-04-14, 03:19:01,VALID,916.429,VALID,0,VALID,96.5402,VALID,0,VALID,19.73,VALID,166,VALID,1.69855,
2007-04-14, 03:20:01,VALID,916.427,VALID,0,VALID,96.8619,VALID,0.0339617,VALID,19.6913,VALID,168,VALID,1.74201,
2007-04-14, 03:21:00,VALID,916.408,VALID,0,VALID,97.1976,VALID,0,VALID,19.6234,VALID,188,VALID,1.08899,
2007-04-14, 03:22:00,VALID,916.439,VALID,0,VALID,97.5397,VALID,0,VALID,19.568,VALID,137,VALID,0.736471,
2007-04-14, 03:23:00,VALID,916.424,VALID,0,VALID,97.8029,VALID,0.0169808,VALID,19.5259,VALID,142,VALID,1.18378,
2007-04-14, 03:24:01,VALID,916.444,VALID,0,VALID,98.0293,VALID,0,VALID,19.4834,VALID,172,VALID,1.13481,
2007-04-14, 03:25:00,VALID,916.44,VALID,0,VALID,98.2467,VALID,0,VALID,19.4612,VALID,166,VALID,1.40098,
2007-04-14, 03:26:00,VALID,916.457,VALID,0,VALID,98.4222,VALID,0,VALID,19.4288,VALID,147,VALID,0.905849,
2007-04-14, 03:27:00,VALID,916.453,VALID,0,VALID,98.6307,VALID,0,VALID,19.4023,VALID,166,VALID,1.24023,
2007-04-14, 03:28:00,VALID,916.458,VALID,0,VALID,98.9079,VALID,0.0169808,VALID,19.3736,VALID,159,VALID,1.6637,
2007-04-14, 03:29:00,VALID,916.444,VALID,0,VALID,99.1813,VALID,-0.101885,VALID,19.3165,VALID,160,VALID,0.757118,
2007-04-14, 03:30:00,VALID,916.46,VALID,0,VALID,99.4191,VALID,-0.101885,VALID,19.284,VALID,174,VALID,1.50949,
2007-04-14, 03:31:01,VALID,916.445,VALID,0,VALID,99.587,VALID,-0.0849042,VALID,19.2743,VALID,157,VALID,2.04924,
2007-04-14, 03:32:00,VALID,916.454,VALID,0,VALID,99.5247,VALID,-0.0849042,VALID,19.3,VALID,155,VALID,1.62624,
2007-04-14, 03:33:00,VALID,916.47,VALID,0,VALID,99.4166,VALID,-0.101885,VALID,19.3294,VALID,160,VALID,1.75763,
2007-04-14, 03:34:00,VALID,916.473,VALID,0,VALID,99.3149,VALID,-0.118866,VALID,19.3554,VALID,164,VALID,1.52324,
2007-04-14, 03:35:00,VALID,916.476,VALID,0,VALID,99.1661,VALID,-0.118866,VALID,19.3784,VALID,173,VALID,1.63063,